Meteo pe oră la Bolshoe Dymcevo

Astăzi, 9 Mai, Duminică

Timp Temperatura Precipitaţii Vânt Presiune Umiditate
00:00 +2°C° 0.2 mm 5 m/s 738 mmHg 93%
01:00 +2°C° 0.2 mm 5 m/s 739 mmHg 93%
02:00 +1°C° 0 mm 5 m/s 739 mmHg 93%
03:00 +1°C° 0 mm 5 m/s 739 mmHg 91%
04:00 +1°C° 0 mm 5 m/s 740 mmHg 88%
05:00 +1°C° 0 mm 5 m/s 740 mmHg 86%
06:00 +2°C° 0 mm 5 m/s 741 mmHg 81%
07:00 +2°C° 0 mm 6 m/s 742 mmHg 77%
08:00 +3°C° 0 mm 6 m/s 742 mmHg 72%
09:00 +5°C° 0 mm 6 m/s 743 mmHg 63%
10:00 +7°C° 0 mm 6 m/s 743 mmHg 54%
11:00 +9°C° 0 mm 6 m/s 744 mmHg 45%
12:00 +9°C° 0 mm 6 m/s 744 mmHg 42%
13:00 +10°C° 0 mm 5 m/s 745 mmHg 39%
14:00 +10°C° 0 mm 5 m/s 745 mmHg 37%
15:00 +10°C° 0 mm 5 m/s 746 mmHg 40%
16:00 +10°C° 0 mm 5 m/s 746 mmHg 42%
17:00 +11°C° 0 mm 4 m/s 747 mmHg 45%
18:00 +8°C° 0 mm 4 m/s 747 mmHg 51%
19:00 +7°C° 0 mm 3 m/s 748 mmHg 57%
20:00 +5°C° 0 mm 2 m/s 749 mmHg 62%
21:00 +4°C° 0 mm 2 m/s 750 mmHg 64%
22:00 +3°C° 0 mm 2 m/s 750 mmHg 65%
23:00 +2°C° 0 mm 2 m/s 751 mmHg 66%

Mâine, 10 Mai, Luni

Timp Temperatura Precipitaţii Vânt Presiune Umiditate
00:00 +1°C° 0 mm 2 m/s 752 mmHg 66%
01:00 +2°C° 0 mm 1 m/s 752 mmHg 66%
02:00 +2°C° 0 mm 1 m/s 753 mmHg 65%
03:00 +2°C° 0 mm 1 m/s 753 mmHg 63%
04:00 +3°C° 0 mm 1 m/s 754 mmHg 62%
05:00 +3°C° 0 mm 1 m/s 754 mmHg 60%
06:00 +6°C° 0 mm 1 m/s 754 mmHg 54%
07:00 +8°C° 0 mm 1 m/s 755 mmHg 48%
08:00 +10°C° 0 mm 1 m/s 755 mmHg 42%
09:00 +11°C° 0 mm 1 m/s 755 mmHg 40%
10:00 +12°C° 0 mm 1 m/s 755 mmHg 38%
11:00 +13°C° 0 mm 2 m/s 755 mmHg 36%
12:00 +14°C° 0 mm 2 m/s 755 mmHg 35%
13:00 +15°C° 0 mm 2 m/s 755 mmHg 35%
14:00 +15°C° 0 mm 2 m/s 755 mmHg 34%
15:00 +14°C° 0 mm 2 m/s 755 mmHg 41%
16:00 +14°C° 0 mm 2 m/s 755 mmHg 48%
17:00 +13°C° 0 mm 2 m/s 755 mmHg 54%
18:00 +12°C° 0 mm 2 m/s 755 mmHg 58%
19:00 +9°C° 0 mm 2 m/s 755 mmHg 62%
20:00 +8°C° 0 mm 2 m/s 756 mmHg 65%
21:00 +7°C° 0 mm 2 m/s 756 mmHg 67%
22:00 +7°C° 0 mm 2 m/s 756 mmHg 68%
23:00 +6°C° 0 mm 2 m/s 756 mmHg 70%

Poimâine, 11 Mai, Marţi

Timp Temperatura Precipitaţii Vânt Presiune Umiditate
00:00 +6°C° 0 mm 2 m/s 756 mmHg 70%
01:00 +6°C° 0 mm 2 m/s 756 mmHg 71%
02:00 +5°C° 0 mm 2 m/s 757 mmHg 72%
03:00 +6°C° 0 mm 2 m/s 757 mmHg 71%
04:00 +7°C° 0 mm 1 m/s 757 mmHg 70%
05:00 +8°C° 0 mm 1 m/s 757 mmHg 69%
06:00 +10°C° 0 mm 1 m/s 757 mmHg 64%
07:00 +11°C° 0 mm 1 m/s 757 mmHg 58%
08:00 +13°C° 0 mm 2 m/s 757 mmHg 53%
09:00 +14°C° 0 mm 2 m/s 757 mmHg 50%
10:00 +16°C° 0 mm 2 m/s 757 mmHg 48%
11:00 +17°C° 0 mm 2 m/s 757 mmHg 45%
12:00 +18°C° 0 mm 2 m/s 757 mmHg 45%
13:00 +19°C° 0 mm 2 m/s 757 mmHg 45%
14:00 +19°C° 0 mm 2 m/s 757 mmHg 45%
15:00 +19°C° 0 mm 2 m/s 756 mmHg 49%
16:00 +19°C° 0 mm 2 m/s 756 mmHg 52%
17:00 +18°C° 0 mm 2 m/s 756 mmHg 56%
18:00 +16°C° 0 mm 2 m/s 756 mmHg 63%
19:00 +14°C° 0 mm 2 m/s 756 mmHg 71%
20:00 +12°C° 0 mm 2 m/s 756 mmHg 79%
21:00 +10°C° 0 mm 2 m/s 756 mmHg 80%
22:00 +9°C° 0 mm 2 m/s 756 mmHg 82%
23:00 +9°C° 0 mm 2 m/s 756 mmHg 83%

12 Mai, Miercuri

Timp Temperatura Precipitaţii Vânt Presiune Umiditate
00:00 +8°C° 0 mm 2 m/s 756 mmHg 83%
01:00 +8°C° 0 mm 2 m/s 756 mmHg 83%
02:00 +8°C° 0 mm 2 m/s 756 mmHg 83%
03:00 +9°C° 0 mm 1 m/s 756 mmHg 82%
04:00 +10°C° 0 mm 1 m/s 756 mmHg 80%
05:00 +10°C° 0 mm 1 m/s 756 mmHg 79%
06:00 +12°C° 0 mm 2 m/s 756 mmHg 72%
07:00 +15°C° 0 mm 2 m/s 756 mmHg 66%
08:00 +17°C° 0 mm 3 m/s 755 mmHg 60%
09:00 +18°C° 0 mm 3 m/s 755 mmHg 58%
10:00 +20°C° 0 mm 4 m/s 755 mmHg 56%
11:00 +21°C° 0 mm 4 m/s 755 mmHg 55%
12:00 +21°C° 0 mm 4 m/s 754 mmHg 54%
13:00 +22°C° 0 mm 5 m/s 754 mmHg 54%
14:00 +22°C° 0 mm 5 m/s 754 mmHg 54%
15:00 +22°C° 0.1 mm 5 m/s 753 mmHg 58%
16:00 +21°C° 0.1 mm 5 m/s 753 mmHg 63%
17:00 +20°C° 0.1 mm 5 m/s 753 mmHg 68%
18:00 +19°C° 0 mm 4 m/s 753 mmHg 73%
19:00 +17°C° 0 mm 4 m/s 753 mmHg 79%
20:00 +16°C° 0 mm 3 m/s 753 mmHg 84%
21:00 +14°C° 0 mm 3 m/s 753 mmHg 87%
22:00 +14°C° 0 mm 2 m/s 752 mmHg 90%
23:00 +14°C° 0 mm 2 m/s 752 mmHg 92%

13 Mai, Joi

Timp Temperatura Precipitaţii Vânt Presiune Umiditate
00:00 +14°C° 0 mm 2 m/s 752 mmHg 92%
01:00 +14°C° 0 mm 2 m/s 752 mmHg 91%
02:00 +14°C° 0 mm 2 m/s 751 mmHg 91%
03:00 +13°C° 0.1 mm 3 m/s 751 mmHg 90%
04:00 +13°C° 0.1 mm 3 m/s 751 mmHg 90%
05:00 +14°C° 0.1 mm 3 m/s 751 mmHg 89%
06:00 +14°C° 0 mm 4 m/s 751 mmHg 86%
07:00 +15°C° 0 mm 4 m/s 751 mmHg 83%
08:00 +16°C° 0 mm 5 m/s 750 mmHg 80%
09:00 +16°C° 0.3 mm 5 m/s 750 mmHg 78%
10:00 +17°C° 0.3 mm 5 m/s 750 mmHg 77%
11:00 +17°C° 0.3 mm 5 m/s 750 mmHg 75%
12:00 +19°C° 0.4 mm 5 m/s 750 mmHg 71%
13:00 +19°C° 0.4 mm 5 m/s 750 mmHg 68%
14:00 +20°C° 0.4 mm 5 m/s 750 mmHg 64%
15:00 +20°C° 0.4 mm 5 m/s 750 mmHg 67%
16:00 +19°C° 0.4 mm 4 m/s 749 mmHg 71%
17:00 +19°C° 0.4 mm 4 m/s 749 mmHg 75%
18:00 +17°C° 0.3 mm 3 m/s 749 mmHg 80%
19:00 +16°C° 0.3 mm 2 m/s 749 mmHg 86%
20:00 +15°C° 0.3 mm 2 m/s 749 mmHg 91%
21:00 +14°C° 0 mm 2 m/s 749 mmHg 93%
22:00 +14°C° 0 mm 2 m/s 749 mmHg 94%
23:00 +13°C° 0 mm 2 m/s 749 mmHg 95%

14 Mai, Vineri

Timp Temperatura Precipitaţii Vânt Presiune Umiditate
00:00 +13°C° 0 mm 2 m/s 748 mmHg 95%
01:00 +13°C° 0 mm 2 m/s 748 mmHg 95%
02:00 +12°C° 0 mm 2 m/s 748 mmHg 96%
03:00 +13°C° 0 mm 2 m/s 748 mmHg 95%
04:00 +13°C° 0 mm 2 m/s 748 mmHg 95%
05:00 +14°C° 0 mm 2 m/s 748 mmHg 94%
06:00 +14°C° 0 mm 3 m/s 747 mmHg 89%
07:00 +17°C° 0 mm 3 m/s 747 mmHg 83%
08:00 +18°C° 0 mm 4 m/s 747 mmHg 78%
09:00 +19°C° 0.2 mm 4 m/s 747 mmHg 73%
10:00 +21°C° 0.2 mm 4 m/s 746 mmHg 68%
11:00 +22°C° 0.2 mm 5 m/s 746 mmHg 62%
12:00 +22°C° 0 mm 5 m/s 746 mmHg 58%
13:00 +23°C° 0 mm 5 m/s 745 mmHg 54%
14:00 +25°C° 0 mm 5 m/s 745 mmHg 50%
15:00 +23°C° 0.1 mm 5 m/s 745 mmHg 55%
16:00 +22°C° 0.1 mm 5 m/s 744 mmHg 60%
17:00 +22°C° 0.1 mm 5 m/s 744 mmHg 66%
18:00 +20°C° 0.7 mm 4 m/s 744 mmHg 74%
19:00 +18°C° 0.7 mm 4 m/s 744 mmHg 82%
20:00 +17°C° 0.7 mm 3 m/s 744 mmHg 90%
21:00 +16°C° 0.4 mm 3 m/s 743 mmHg 92%
22:00 +16°C° 0.4 mm 3 m/s 743 mmHg 94%
23:00 +16°C° 0.4 mm 3 m/s 743 mmHg 95%
Arată mai mult

Formular de consimțământ

Meteoprog și furnizorii noștri de servicii pot stoca și accesa date personale, precum cookies, identificatori de dispozitiv sau alte tehnologii similare pe dispozitivul dumneavoastră și procesa astfel de date pentru a personaliza conținutul și reclamele, dar și pentru a oferi caracteristici de social media și pentru a analiza traficul.

  • Stocarea și/sau accesarea informațiilor pe dispozitivul dumneavoastră

    Cookies, identificatori de dispozitiv sau alte informații pot fi stocate sau accesate pe dispozitiv în scopurile indicate mai sus.

  • Reclame și conținut personalizat, evaluarea reclamelor și a conținutului, informații despre audiențe și dezvoltarea produselor

    Reclamele și conținutul pot fi personalizate pe baza unui profil. Pot fi adăugate date suplimentare pentru a personaliza mai bine reclamele și conținutul. Performanța reclamelor și conținutului poate fi măsurată. Pot fi obținute informații despre utilizatorii care au văzut reclamele și conținutul. Aceste date pot fi utilizate pentru a dezvolta sau îmbunătăți experiența utilizatorilor, sistemele și software-ul.

Dând clic pe ‘Sunt de acord’, permiteți utilizarea cookie-urilor menționate, a identificatorilor de dispozitiv, balizelor web sau altor tehnologii similare. Setările pot fi modificate din browser-ul dispozitivului dumneavoastră.

În anumite scopuri, interesele legitime pot prima asupra consimțământului. Puteți citi mai multe informații în acest sens în Politica privind Confidențialitatea Datelor și Cookie.